TimeAST,TemperatureF,Dew PointF,Humidity,Sea Level PressureIn,VisibilityMPH,Wind Direction,Wind SpeedMPH,Gust SpeedMPH,PrecipitationIn,Events,Conditions,WindDirDegrees,DateUTC
12:00 AM,77.0,75.2,94,29.95,6.2,East,13.8,-,N/A,,Scattered Clouds,90,2014-01-07 04:00:00
1:00 AM,78.8,73.4,83,29.92,6.2,East,11.5,-,N/A,,Scattered Clouds,90,2014-01-07 05:00:00
2:00 AM,78,74,84,29.94,9,East,12.7,,,,Widespread Dust,90,2014-01-07 06:00:00
2:00 AM,78.8,73.4,83,29.92,6.2,East,12.7,-,N/A,,Scattered Clouds,90,2014-01-07 06:00:00
3:00 AM,75.2,73.4,94,29.92,6.2,East,17.3,-,N/A,Rain,Rain Showers,80,2014-01-07 07:00:00
4:00 AM,77.0,75.2,94,29.92,6.2,ENE,6.9,-,N/A,,Partly Cloudy,70,2014-01-07 08:00:00
5:00 AM,77.0,75.2,94,29.92,6.2,East,16.1,-,N/A,,Scattered Clouds,80,2014-01-07 09:00:00
6:00 AM,77.0,75.2,94,29.92,6.2,East,13.8,-,N/A,,Mostly Cloudy,100,2014-01-07 10:00:00
7:00 AM,77.0,75.2,94,29.95,5.0,ENE,17.3,-,N/A,Rain,Light Rain Showers,70,2014-01-07 11:00:00
8:00 AM,78.8,75.2,89,29.98,6.2,ENE,3.5,-,N/A,,Partly Cloudy,60,2014-01-07 12:00:00
9:00 AM,80.6,78.8,94,30.01,6.2,East,16.1,-,N/A,,Partly Cloudy,90,2014-01-07 13:00:00
10:00 AM,82.4,75.2,79,30.01,6.2,ESE,13.8,-,N/A,,Scattered Clouds,120,2014-01-07 14:00:00
11:00 AM,80,75,79,30.00,8,ESE,19.6,,,Rain,Light Rain Showers,120,2014-01-07 15:00:00
11:00 AM,80.6,75.2,84,29.98,6.2,ESE,19.6,-,N/A,Rain,Light Rain Showers,120,2014-01-07 15:00:00
12:00 PM,82.4,75.2,79,29.95,6.2,ESE,20.7,-,N/A,,Scattered Clouds,120,2014-01-07 16:00:00
1:00 PM,80.6,75.2,84,29.95,6.2,East,20.7,-,N/A,,Mostly Cloudy,90,2014-01-07 17:00:00
2:00 PM,79,74,81,29.93,7,East,12.7,,,Rain,Light Rain Showers,90,2014-01-07 18:00:00
2:00 PM,78.8,75.2,89,29.92,6.2,East,12.7,-,N/A,,Mostly Cloudy,90,2014-01-07 18:00:00
3:00 PM,78.8,73.4,83,29.92,6.2,East,23.0,-,N/A,Rain,Light Rain Showers,90,2014-01-07 19:00:00
4:00 PM,80.6,75.2,84,29.89,6.2,East,19.6,-,N/A,,Scattered Clouds,90,2014-01-07 20:00:00
5:00 PM,79,73,78,29.91,7,East,20.7,,,Rain,Light Rain Showers,90,2014-01-07 21:00:00
5:00 PM,78.8,73.4,83,29.89,6.2,East,20.7,-,N/A,Rain,Light Rain Showers,90,2014-01-07 21:00:00
6:00 PM,78.8,71.6,78,29.89,6.2,East,21.9,-,N/A,,Partly Cloudy,90,2014-01-07 22:00:00
7:00 PM,78.8,71.6,78,29.92,6.2,ENE,19.6,-,N/A,,Partly Cloudy,70,2014-01-07 23:00:00
8:00 PM,78,72,76,29.93,9,East,13.8,,,Rain,Light Rain Showers,80,2014-01-08 00:00:00
8:00 PM,78.8,71.6,78,29.92,6.2,East,13.8,-,N/A,,Partly Cloudy,80,2014-01-08 00:00:00
9:00 PM,78.8,71.6,78,29.95,6.2,ENE,10.4,-,N/A,,Partly Cloudy,70,2014-01-08 01:00:00
10:00 PM,77.0,71.6,83,29.95,6.2,East,11.5,-,N/A,,Partly Cloudy,90,2014-01-08 02:00:00
11:00 PM,78,75,89,29.96,9,East,10.4,,,,Widespread Dust,90,2014-01-08 03:00:00
11:00 PM,78.8,69.8,74,29.95,6.2,East,10.4,-,N/A,,Mostly Cloudy,90,2014-01-08 03:00:00